Weather History for Appleton, MN

Change the Weather History Date:

Thursday, October 13, 2011

  Actual Average Record
Temperature  
Mean Temperature 54 °F -  
Max Temperature 62 °F 57 °F 66 °F (2000)
Min Temperature 46 °F 35 °F 23 °F (2002)
Degree Days  
Heating Degree Days 11    
Growing Degree Days 4 (Base 50)    
Moisture  
Dew Point 43 °F    
Average Humidity 72    
Maximum Humidity 93    
Minimum Humidity 39    
Precipitation  
Precipitation 0.10 in - - ()
Sea Level Pressure  
Sea Level Pressure 29.72 in    
Wind  
Wind Speed 11 mph (NW)    
Max Wind Speed 22 mph    
Max Gust Speed 33 mph    
Visibility 10 miles    
Events Rain , Thunderstorm    
Averages and records for this station are not official NWS values.
T = Trace of Precipitation, MM = Missing Value Source: NWS Daily Summary

Daily Weather History Graph

Daily Weather History Graph

Search for Another Location

Airport:

Trip Planner

Search our weather history database for the weather conditions in past years. The results will help you decide how hot, cold, wet, or windy it might be!

Date:

Astronomy

Oct. 13, 2011 Rise Set
Actual Time 7:37 AM CDT 6:42 PM CDT
Civil Twilight 7:07 AM CDT 7:12 PM CDT
Nautical Twilight 6:33 AM CDT 7:46 PM CDT
Astronomical Twilight 5:59 AM CDT 8:20 PM CDT
Moon 7:10 PM CDT (10/13) 9:17 AM CDT (10/13)
Length of Visible Light 12h 04m
Length of Day
11h 05m
Full, 98% of the Moon is Illuminated
Oct 13
Full
Oct 19
Last Quarter
Oct 26
New
Nov 2
First Quarter
Nov 10
Full

Hourly Weather History & Observations

Time (CDT) Temp. Windchill Dew Point Humidity Pressure Visibility Wind Dir Wind Speed Gust Speed Precip Events Conditions
12:14 AM 51.8 °F - 46.4 °F 82% 29.71 in 10.0 mi WNW 8.1 mph - N/A   Clear
12:34 AM 51.8 °F - 46.4 °F 82% 29.71 in 10.0 mi WNW 8.1 mph - N/A   Clear
1:15 AM 51.8 °F - 46.4 °F 82% 29.71 in 10.0 mi WNW 8.1 mph - N/A   Clear
1:35 AM 51.8 °F - 46.4 °F 82% 29.71 in 10.0 mi WNW 8.1 mph - N/A   Clear
1:54 AM 51.8 °F - 46.4 °F 82% 29.71 in 10.0 mi WNW 8.1 mph - N/A   Clear
2:14 AM 51.8 °F - 46.4 °F 82% 29.71 in 10.0 mi NW 6.9 mph - N/A   Clear
2:34 AM 51.8 °F - 46.4 °F 82% 29.71 in 10.0 mi NW 6.9 mph - N/A   Clear
2:54 AM 51.8 °F - 46.4 °F 82% 29.71 in 10.0 mi NW 8.1 mph - N/A   Clear
3:14 AM 51.8 °F - 46.4 °F 82% 29.71 in 10.0 mi NW 9.2 mph - N/A   Clear
3:34 AM 51.8 °F - 46.4 °F 82% 29.72 in 10.0 mi NW 9.2 mph - N/A   Clear
3:55 AM 51.8 °F - 46.4 °F 82% 29.71 in 10.0 mi WNW 9.2 mph - N/A   Clear
4:14 AM 51.8 °F - 46.4 °F 82% 29.72 in 10.0 mi WNW 9.2 mph - N/A   Clear
4:34 AM 48.2 °F - 46.4 °F 93% 29.72 in 10.0 mi WNW 9.2 mph - N/A   Clear
4:55 AM 48.2 °F - 46.4 °F 93% 29.72 in 10.0 mi WNW 9.2 mph - N/A   Clear
5:14 AM 48.2 °F - 46.4 °F 93% 29.72 in 10.0 mi WNW 9.2 mph - N/A   Clear
5:34 AM 48.2 °F - 46.4 °F 93% 29.73 in 10.0 mi WNW 9.2 mph - N/A   Clear
5:54 AM 48.2 °F - 46.4 °F 93% 29.73 in 10.0 mi NW 9.2 mph - N/A   Clear
6:14 AM 48.2 °F - 44.6 °F 87% 29.73 in 10.0 mi NW 8.1 mph - N/A   Clear
6:34 AM 46.4 °F 43.5 °F 44.6 °F 93% 29.73 in 10.0 mi NW 5.8 mph - N/A   Clear
6:55 AM 48.2 °F - 46.4 °F 93% 29.74 in 10.0 mi NW 15.0 mph 18.4 mph N/A   Mostly Cloudy
7:15 AM 48.2 °F - 46.4 °F 93% 29.74 in 10.0 mi NW 13.8 mph 25.3 mph N/A   Overcast
7:34 AM 48.2 °F - 46.4 °F 93% 29.74 in 10.0 mi NW 16.1 mph 21.9 mph N/A   Overcast
7:54 AM 48.2 °F - 46.4 °F 93% 29.75 in 10.0 mi NW 13.8 mph 18.4 mph N/A   Overcast
8:15 AM 48.2 °F - 44.6 °F 87% 29.75 in 10.0 mi NW 15.0 mph - N/A   Overcast
8:34 AM 48.2 °F - 44.6 °F 87% 29.75 in 10.0 mi NNW 11.5 mph 20.7 mph N/A   Overcast
9:14 AM 50.0 °F - 44.6 °F 82% 29.75 in 10.0 mi NW 15.0 mph 19.6 mph N/A   Overcast
9:54 AM 51.8 °F - 42.8 °F 71% 29.76 in 10.0 mi NW 19.6 mph 26.5 mph N/A   Overcast
10:15 AM 51.8 °F - 42.8 °F 71% 29.76 in 10.0 mi NW 20.7 mph 24.2 mph N/A   Overcast
10:35 AM 51.8 °F - 44.6 °F 76% 29.75 in 10.0 mi NW 17.3 mph 24.2 mph N/A   Mostly Cloudy
10:54 AM 53.6 °F - 44.6 °F 72% 29.75 in 10.0 mi NW 16.1 mph 21.9 mph N/A   Scattered Clouds
11:14 AM 53.6 °F - 44.6 °F 72% 29.75 in 10.0 mi WNW 15.0 mph - N/A   Clear
11:35 AM 55.4 °F - 44.6 °F 67% 29.74 in 10.0 mi WNW 10.4 mph 17.3 mph N/A   Clear
11:54 AM 55.4 °F - 44.6 °F 67% 29.73 in 10.0 mi NW 15.0 mph 20.7 mph N/A   Clear
12:14 PM 57.2 °F - 44.6 °F 63% 29.72 in 10.0 mi NW 10.4 mph - N/A   Clear
12:35 PM 57.2 °F - 42.8 °F 59% 29.73 in - WNW 16.1 mph - N/A   Unknown
12:55 PM 59.0 °F - 41.0 °F 51% 29.72 in 10.0 mi NW 17.3 mph 21.9 mph N/A   Clear
1:15 PM 60.8 °F - 39.2 °F 45% 29.71 in 10.0 mi NW 15.0 mph 19.6 mph N/A   Clear
1:35 PM 60.8 °F - 39.2 °F 45% 29.70 in 10.0 mi NW 13.8 mph 19.6 mph N/A   Clear
1:54 PM 60.8 °F - 35.6 °F 39% 29.70 in 10.0 mi NNW 13.8 mph - N/A   Clear
2:14 PM 62.6 °F - 37.4 °F 39% 29.69 in 10.0 mi NW 16.1 mph 21.9 mph N/A   Clear
2:34 PM 60.8 °F - 35.6 °F 39% 29.69 in 10.0 mi NNW 16.1 mph 21.9 mph N/A   Scattered Clouds
2:54 PM 59.0 °F - 37.4 °F 45% 29.70 in 10.0 mi WNW 17.3 mph 24.2 mph N/A   Scattered Clouds
3:15 PM 62.6 °F - 37.4 °F 39% 29.69 in 10.0 mi NW 19.6 mph 27.6 mph N/A   Scattered Clouds
3:34 PM 62.6 °F - 37.4 °F 39% 29.69 in 10.0 mi NW 15.0 mph - N/A   Clear
3:54 PM 60.8 °F - 39.2 °F 45% 29.69 in 10.0 mi NNW 17.3 mph - N/A   Clear
4:14 PM 60.8 °F - 37.4 °F 42% 29.69 in 10.0 mi NW 13.8 mph 19.6 mph N/A   Clear
4:34 PM 60.8 °F - 39.2 °F 45% 29.68 in 10.0 mi WNW 12.7 mph 19.6 mph N/A   Clear
4:54 PM 60.8 °F - 39.2 °F 45% 29.68 in 10.0 mi WNW 12.7 mph 20.7 mph N/A   Clear
5:14 PM 60.8 °F - 39.2 °F 45% 29.68 in 10.0 mi NW 11.5 mph - N/A   Clear
5:54 PM 59.0 °F - 42.8 °F 55% 29.68 in 10.0 mi NW 9.2 mph - N/A   Clear
6:14 PM 59.0 °F - 42.8 °F 55% 29.68 in 10.0 mi NNW 8.1 mph - N/A   Clear
6:35 PM 55.4 °F - 42.8 °F 63% 29.68 in 10.0 mi NW 4.6 mph - N/A   Scattered Clouds
6:54 PM 55.4 °F - 42.8 °F 63% 29.68 in 10.0 mi NW 4.6 mph - N/A   Scattered Clouds
7:15 PM 55.4 °F - 42.8 °F 63% 29.69 in 10.0 mi North 13.8 mph - N/A   Mostly Cloudy
8:14 PM 48.2 °F - 44.6 °F 87% 29.74 in 5.0 mi WNW 21.9 mph 33.4 mph 0.01 in Rain , Thunderstorm Heavy Thunderstorms and Rain
8:34 PM 48.2 °F - 44.6 °F 87% 29.73 in 10.0 mi NW 13.8 mph 21.9 mph 0.07 in Rain Heavy Rain
8:55 PM 48.2 °F - 44.6 °F 87% 29.72 in 10.0 mi WNW 6.9 mph - 0.10 in Rain Rain
9:15 PM 46.4 °F 42.9 °F 44.6 °F 93% 29.72 in 10.0 mi WNW 6.9 mph - N/A Rain Light Rain
9:35 PM 46.4 °F 41.9 °F 44.6 °F 93% 29.72 in 10.0 mi West 9.2 mph - N/A   Scattered Clouds
9:54 PM 46.4 °F 41.9 °F 44.6 °F 93% 29.72 in 10.0 mi WNW 9.2 mph - N/A   Scattered Clouds
10:14 PM 46.4 °F 42.4 °F 42.8 °F 87% 29.72 in 10.0 mi WNW 8.1 mph - N/A   Scattered Clouds
10:54 PM 44.6 °F 40.2 °F 42.8 °F 93% 29.72 in 10.0 mi West 8.1 mph - N/A   Clear
11:15 PM 44.6 °F 40.2 °F 42.8 °F 93% 29.71 in 10.0 mi WNW 8.1 mph - N/A   Clear
11:35 PM 44.6 °F 40.7 °F 42.8 °F 93% 29.71 in 10.0 mi West 6.9 mph - N/A   Clear
11:54 PM 44.6 °F 40.7 °F 42.8 °F 93% 29.71 in 10.0 mi West 6.9 mph - N/A   Scattered Clouds